Date String (YYYY-MM-DD hh:mm:ss) UTC,Instrument flags,Ambient pressure (hPa),Sample flow (lpm),Bypass flow (lpm),Sample temperature (°C),Ambient temperature (°C),ASC tube jacket temperature (°C),LED temperature (°C),Box temperature (°C),Sample RH (%),Span deviation,Mass concentration (μg/m³),Mass concentration (μg/m³),Mass concentration (μg/m³)
DateTimeUTC,F1_M11,P_M11,Q1_M11,Q2_M11,T1_M11,T2_M11,T3_M11,T4_M11,T5_M11,U1_M11,ZSPAN_M11,X2_M11,X0_M11,X1_M11
2022-09-19 21:00:00,,0824.5,5.01,0.00,29.7,28.4,00.0,38.2,31.6,15.6,0000.0,0003.20,0008.55,0002.74
2022-09-19 21:01:00,,0824.5,5.00,0.00,29.8,28.6,00.0,38.3,31.7,15.2,0000.0,0003.21,0008.09,0002.71
2022-09-19 21:02:00,,0824.5,4.99,0.00,29.8,28.0,00.0,38.3,31.7,15.1,0000.0,0003.21,0008.29,0002.70
2022-09-19 21:03:00,,0824.4,5.00,0.00,29.8,26.8,00.0,38.3,31.6,14.0,0000.0,0003.19,0008.36,0002.66
2022-09-19 21:04:00,,0824.4,5.00,0.00,29.7,26.5,00.0,38.2,31.6,15.6,0000.0,0003.15,0008.94,0002.64
2022-09-19 21:05:00,,0824.4,4.99,0.00,29.7,26.8,00.0,38.2,31.4,15.1,0000.0,0003.14,0008.83,0002.65
2022-09-19 21:06:00,,0824.5,5.00,0.00,29.6,27.1,00.0,38.2,31.3,16.2,0000.0,0003.19,0008.77,0002.69
2022-09-19 21:07:00,,0824.5,5.00,0.00,29.6,27.4,00.0,38.2,31.4,16.7,0000.0,0003.26,0008.97,0002.73
2022-09-19 21:08:00,,0824.4,5.00,0.00,29.6,27.7,00.0,38.2,31.4,16.7,0000.0,0003.34,0009.40,0002.78
2022-09-19 21:09:00,,0824.4,5.01,0.00,29.6,28.0,00.0,38.2,31.5,17.2,0000.0,0003.38,0009.31,0002.82
2022-09-19 21:10:00,,0824.4,4.99,0.00,29.7,28.2,00.0,38.2,31.5,16.7,0000.0,0003.40,0008.90,0002.87
2022-09-19 21:11:00,,0824.5,4.99,0.00,29.7,28.4,00.0,38.3,31.6,17.0,0000.0,0003.43,0009.35,0002.91
2022-09-19 21:12:00,,0824.4,5.00,0.00,29.7,28.5,00.0,38.3,31.7,17.0,0000.0,0003.46,0009.25,0002.95
2022-09-19 21:13:00,,0824.5,5.01,0.00,29.8,28.3,00.0,38.3,31.7,16.1,0000.0,0003.50,0009.24,0003.00
2022-09-19 21:14:00,,0824.7,5.00,0.00,29.8,27.0,00.0,38.3,31.6,15.9,0000.0,0003.54,0009.29,0003.04
2022-09-19 21:15:00,,0824.4,5.00,0.00,29.7,26.5,00.0,38.2,31.5,15.1,0000.0,0003.57,0008.67,0003.05
2022-09-19 21:16:00,,0824.4,5.02,0.00,29.7,26.7,00.0,38.2,31.5,15.3,0000.0,0003.59,0008.77,0003.03
2022-09-19 21:17:00,,0824.5,5.00,0.00,29.6,27.0,00.0,38.2,31.3,15.8,0000.0,0003.54,0009.24,0002.99
2022-09-19 21:18:00,,0824.4,4.99,0.00,29.6,27.3,00.0,38.2,31.3,15.8,0000.0,0003.48,0008.80,0002.95
2022-09-19 21:19:00,,0824.4,5.01,0.00,29.6,27.6,00.0,38.2,31.4,15.8,0000.0,0003.40,0008.19,0002.92
2022-09-19 21:20:00,,0824.4,4.99,0.00,29.6,27.9,00.0,38.2,31.4,16.1,0000.0,0003.35,0008.19,0002.88
2022-09-19 21:21:00,,0824.4,5.01,0.00,29.6,28.1,00.0,38.2,31.5,16.2,0000.0,0003.37,0008.22,0002.86
2022-09-19 21:22:00,,0824.4,5.00,0.00,29.7,28.3,00.0,38.2,31.6,16.0,0000.0,0003.35,0007.50,0002.83
2022-09-19 21:23:00,,0824.5,4.99,0.00,29.7,28.5,00.0,38.3,31.6,15.9,0000.0,0003.33,0007.30,0002.81
2022-09-19 21:24:00,,0824.4,5.01,0.00,29.8,28.4,00.0,38.3,31.7,15.9,0000.0,0003.31,0008.18,0002.77
2022-09-19 21:25:00,,0824.4,5.00,0.00,29.8,27.2,00.0,38.3,31.6,16.0,0000.0,0003.29,0008.46,0002.76
2022-09-19 21:26:00,,0824.4,5.00,0.00,29.7,26.4,00.0,38.2,31.5,16.3,0000.0,0003.32,0009.00,0002.77
2022-09-19 21:27:00,,0824.4,5.00,0.00,29.7,26.6,00.0,38.2,31.4,16.5,0000.0,0003.33,0009.47,0002.78
2022-09-19 21:28:00,,0824.4,5.00,0.00,29.6,26.9,00.0,38.2,31.2,17.2,0000.0,0003.37,0009.68,0002.80
2022-09-19 21:29:00,,0824.4,5.01,0.00,29.5,27.2,00.0,38.2,31.3,17.8,0000.0,0003.42,0010.32,0002.81
2022-09-19 21:30:00,,0824.5,4.99,0.00,29.6,27.5,00.0,38.2,31.3,17.9,0000.0,0003.48,0010.68,0002.82
2022-09-19 21:31:00,,0824.4,5.00,0.00,29.6,27.8,00.0,38.2,31.4,18.3,0000.0,0003.51,0010.66,0002.83
2022-09-19 21:32:00,,0824.4,4.99,0.00,29.6,28.0,00.0,38.2,31.4,18.6,0000.0,0003.50,0010.53,0002.84
2022-09-19 21:33:00,,0824.5,5.01,0.00,29.6,28.2,00.0,38.2,31.5,18.0,0000.0,0003.51,0010.54,0002.85
2022-09-19 21:34:00,,0824.5,4.99,0.00,29.7,28.4,00.0,38.2,31.6,17.6,0000.0,0003.50,0010.56,0002.86
2022-09-19 21:35:00,,0824.5,5.00,0.00,29.7,28.6,00.0,38.3,31.7,17.4,0000.0,0003.50,0010.59,0002.87
2022-09-19 21:36:00,,0824.6,5.01,0.00,29.8,28.2,00.0,38.3,31.7,17.6,0000.0,0003.50,0010.02,0002.88
2022-09-19 21:37:00,,0824.5,4.99,0.00,29.7,26.8,00.0,38.3,31.6,18.0,0000.0,0003.50,0009.57,0002.89
2022-09-19 21:38:00,,0824.5,5.00,0.00,29.7,26.4,00.0,38.2,31.5,17.0,0000.0,0003.52,0009.44,0002.90
2022-09-19 21:39:00,,0824.4,5.00,0.00,29.6,26.7,00.0,38.2,31.4,17.2,0000.0,0003.55,0009.31,0002.92
2022-09-19 21:40:00,,0824.4,5.00,0.00,29.6,27.0,00.0,38.2,31.3,16.7,0000.0,0003.57,0008.61,0002.92
2022-09-19 21:41:00,,0824.4,5.00,0.00,29.6,27.3,00.0,38.2,31.3,16.3,0000.0,0003.52,0008.03,0002.92
2022-09-19 21:42:00,,0824.4,5.00,0.00,29.6,27.6,00.0,38.2,31.3,15.6,0000.0,0003.51,0008.07,0002.93
2022-09-19 21:43:00,,0824.4,5.00,0.00,29.6,27.9,00.0,38.2,31.4,15.1,0000.0,0003.49,0008.18,0002.93
2022-09-19 21:44:00,,0824.4,5.01,0.00,29.6,28.1,00.0,38.2,31.5,15.6,0000.0,0003.51,0009.00,0002.93
2022-09-19 21:45:00,,0824.5,4.99,0.00,29.7,28.3,00.0,38.2,31.5,15.1,0000.0,0003.52,0009.03,0002.93
2022-09-19 21:46:00,,0824.4,5.00,0.00,29.7,28.5,00.0,38.3,31.6,15.4,0000.0,0003.53,0008.47,0002.95
2022-09-19 21:47:00,,0824.5,5.02,0.00,29.7,28.3,00.0,38.3,31.7,14.9,0000.0,0003.57,0008.53,0002.97
2022-09-19 21:48:00,,0824.5,4.99,0.00,29.7,27.1,00.0,38.3,31.6,15.4,0000.0,0003.57,0008.52,0002.97
2022-09-19 21:49:00,,0824.5,5.00,0.00,29.7,26.4,00.0,38.2,31.5,15.2,0000.0,0003.56,0008.43,0002.97
2022-09-19 21:50:00,,0824.4,5.01,0.00,29.7,26.7,00.0,38.2,31.5,14.7,0000.0,0003.53,0008.00,0002.97
2022-09-19 21:51:00,,0824.4,5.01,0.00,29.6,27.0,00.0,38.2,31.3,14.8,0000.0,0003.50,0007.85,0002.97
2022-09-19 21:52:00,,0824.4,5.00,0.00,29.6,27.3,00.0,38.2,31.3,14.4,0000.0,0003.53,0007.86,0002.98
2022-09-19 21:53:00,,0824.4,4.98,0.00,29.6,27.6,00.0,38.2,31.3,14.5,0000.0,0003.52,0007.75,0002.98
2022-09-19 21:54:00,,0824.4,5.01,0.00,29.6,27.8,00.0,38.2,31.4,14.8,0000.0,0003.52,0007.71,0002.97
2022-09-19 21:55:00,,0824.5,4.99,0.00,29.6,28.1,00.0,38.2,31.4,15.0,0000.0,0003.52,0008.35,0002.97
2022-09-19 21:56:00,,0824.5,5.01,0.00,29.7,28.3,00.0,38.2,31.5,15.5,0000.0,0003.56,0009.09,0002.98
2022-09-19 21:57:00,,0824.4,4.99,0.00,29.7,28.5,00.0,38.2,31.6,15.7,0000.0,0003.55,0009.06,0002.98
2022-09-19 21:58:00,,0824.4,5.01,0.00,29.7,27.9,00.0,38.2,31.7,15.5,0000.0,0003.53,0009.50,0002.96
2022-09-19 21:59:00,,0824.6,5.00,0.00,29.7,26.7,00.0,38.2,31.6,15.3,0000.0,0003.53,0010.21,0002.97
